Time,TemperatureF,DewpointF,PressureIn,WindDirection,WindDirectionDegrees,WindSpeedMPH,WindSpeedGustMPH,Humidity,HourlyPrecipIn,Conditions,Clouds,dailyrainin,SoftwareType,DateUTC
2013-03-05 00:00:00,41.5,23.3,29.99,East,90,2.0,6.0,48,0.00,,,0.00,VWS V14.01,2013-03-05 05:00:00,
2013-03-05 00:10:00,41.3,23.6,29.99,ENE,68,2.0,5.0,49,0.00,,,0.00,VWS V14.01,2013-03-05 05:10:00,
2013-03-05 00:20:00,41.2,23.5,29.98,East,90,3.0,6.0,49,0.00,,,0.00,VWS V14.01,2013-03-05 05:20:00,
2013-03-05 00:30:00,41.2,23.5,29.97,East,90,3.0,6.0,49,0.00,,,0.00,VWS V14.01,2013-03-05 05:30:00,
2013-03-05 00:40:00,41.2,24.0,29.97,East,90,3.0,5.0,50,0.00,,,0.00,VWS V14.01,2013-03-05 05:40:00,
2013-03-05 00:50:00,41.1,23.9,29.96,ENE,68,3.0,8.0,50,0.00,,,0.00,VWS V14.01,2013-03-05 05:50:00,
2013-03-05 01:00:00,41.1,23.9,29.96,East,90,3.0,7.0,50,0.00,,,0.00,VWS V14.01,2013-03-05 06:00:00,
2013-03-05 01:10:00,41.2,24.0,29.96,East,90,2.0,6.0,50,0.00,,,0.00,VWS V14.01,2013-03-05 06:10:00,
2013-03-05 01:20:00,41.3,24.1,29.95,ENE,68,2.0,5.0,50,0.00,,,0.00,VWS V14.01,2013-03-05 06:20:00,
2013-03-05 01:30:00,41.3,24.5,29.94,ENE,68,2.0,5.0,51,0.00,,,0.00,VWS V14.01,2013-03-05 06:30:00,
2013-03-05 01:40:00,41.3,24.5,29.94,ENE,68,3.0,6.0,51,0.00,,,0.00,VWS V14.01,2013-03-05 06:40:00,
2013-03-05 01:50:00,41.3,24.5,29.94,East,90,3.0,6.0,51,0.00,,,0.00,VWS V14.01,2013-03-05 06:50:00,
2013-03-05 02:00:00,41.3,24.5,29.93,East,90,1.0,5.0,51,0.00,,,0.00,VWS V14.01,2013-03-05 07:00:00,
2013-03-05 02:10:00,41.3,25.0,29.93,East,90,3.0,6.0,52,0.00,,,0.00,VWS V14.01,2013-03-05 07:10:00,
2013-03-05 02:20:00,41.3,25.0,29.92,East,90,2.0,6.0,52,0.00,,,0.00,VWS V14.01,2013-03-05 07:20:00,
2013-03-05 02:30:00,41.3,25.0,29.93,East,90,2.0,5.0,52,0.00,,,0.00,VWS V14.01,2013-03-05 07:30:00,
2013-03-05 02:40:00,41.3,25.0,29.93,East,90,2.0,5.0,52,0.00,,,0.00,VWS V14.01,2013-03-05 07:40:00,
2013-03-05 02:50:00,41.5,25.2,29.94,East,90,2.0,6.0,52,0.00,,,0.00,VWS V14.01,2013-03-05 07:50:00,
2013-03-05 03:00:00,41.5,25.2,29.94,East,90,2.0,6.0,52,0.00,,,0.00,VWS V14.01,2013-03-05 08:00:00,
2013-03-05 03:10:00,41.5,27.0,29.94,East,90,1.0,5.0,56,0.00,,,0.00,VWS V14.01,2013-03-05 08:10:00,
2013-03-05 03:20:00,40.6,28.6,29.94,East,90,2.0,5.0,62,0.01,,,0.01,VWS V14.01,2013-03-05 08:20:00,
2013-03-05 03:30:00,39.9,29.5,29.94,East,90,2.0,5.0,66,0.02,,,0.02,VWS V14.01,2013-03-05 08:30:00,
2013-03-05 03:40:00,39.6,29.6,29.94,East,90,2.0,4.0,67,0.02,,,0.02,VWS V14.01,2013-03-05 08:40:00,
2013-03-05 03:50:00,39.3,30.4,29.94,ENE,68,1.0,4.0,70,0.02,,,0.02,VWS V14.01,2013-03-05 08:50:00,
2013-03-05 04:00:00,39.1,30.9,29.94,East,90,1.0,3.0,72,0.03,,,0.03,VWS V14.01,2013-03-05 09:00:00,
2013-03-05 04:10:00,38.8,31.2,29.94,East,90,1.0,3.0,74,0.03,,,0.03,VWS V14.01,2013-03-05 09:10:00,
2013-03-05 04:20:00,38.6,31.4,29.93,East,90,2.0,6.0,75,0.03,,,0.03,VWS V14.01,2013-03-05 09:20:00,
2013-03-05 04:30:00,38.6,32.0,29.93,ESE,112,1.0,5.0,77,0.03,,,0.03,VWS V14.01,2013-03-05 09:30:00,
2013-03-05 04:40:00,38.3,32.0,29.93,ESE,112,2.0,6.0,78,0.03,,,0.03,VWS V14.01,2013-03-05 09:40:00,
2013-03-05 04:50:00,38.2,32.6,29.92,East,90,2.0,6.0,80,0.04,,,0.04,VWS V14.01,2013-03-05 09:50:00,
2013-03-05 05:00:00,38.0,32.4,29.92,ESE,112,2.0,5.0,80,0.04,,,0.04,VWS V14.01,2013-03-05 10:00:00,
2013-03-05 05:10:00,38.0,32.7,29.92,ESE,112,2.0,5.0,81,0.04,,,0.04,VWS V14.01,2013-03-05 10:10:00,
2013-03-05 05:20:00,37.9,32.9,29.92,ESE,112,2.0,4.0,82,0.05,,,0.05,VWS V14.01,2013-03-05 10:20:00,
2013-03-05 05:30:00,37.8,33.1,29.90,ESE,112,2.0,6.0,83,0.04,,,0.05,VWS V14.01,2013-03-05 10:30:00,
2013-03-05 05:40:00,37.8,33.7,29.90,East,90,2.0,7.0,85,0.04,,,0.06,VWS V14.01,2013-03-05 10:40:00,
2013-03-05 05:50:00,37.9,34.1,29.92,ESE,112,1.0,5.0,86,0.05,,,0.07,VWS V14.01,2013-03-05 10:50:00,
2013-03-05 06:00:00,38.0,34.2,29.91,ESE,112,2.0,7.0,86,0.05,,,0.07,VWS V14.01,2013-03-05 11:00:00,
2013-03-05 06:10:00,37.9,34.4,29.91,East,90,3.0,7.0,87,0.05,,,0.08,VWS V14.01,2013-03-05 11:10:00,
2013-03-05 06:20:00,37.9,34.4,29.90,East,90,2.0,5.0,87,0.05,,,0.08,VWS V14.01,2013-03-05 11:20:00,
2013-03-05 06:30:00,38.0,34.8,29.90,ESE,112,2.0,6.0,88,0.05,,,0.08,VWS V14.01,2013-03-05 11:30:00,
2013-03-05 06:40:00,38.3,35.1,29.90,East,90,3.0,7.0,88,0.05,,,0.08,VWS V14.01,2013-03-05 11:40:00,
2013-03-05 06:50:00,38.3,35.1,29.89,ESE,112,3.0,7.0,88,0.05,,,0.08,VWS V14.01,2013-03-05 11:50:00,
2013-03-05 07:00:00,38.5,35.3,29.88,ESE,112,3.0,6.0,88,0.04,,,0.08,VWS V14.01,2013-03-05 12:00:00,
2013-03-05 07:10:00,38.8,35.6,29.88,ESE,112,3.0,6.0,88,0.04,,,0.08,VWS V14.01,2013-03-05 12:10:00,
2013-03-05 07:20:00,38.8,35.6,29.88,SE,135,2.0,6.0,88,0.04,,,0.08,VWS V14.01,2013-03-05 12:20:00,
2013-03-05 07:30:00,38.9,35.9,29.87,SE,135,2.0,5.0,89,0.03,,,0.08,VWS V14.01,2013-03-05 12:30:00,
2013-03-05 07:40:00,39.1,36.4,29.87,ESE,112,3.0,6.0,90,0.03,,,0.08,VWS V14.01,2013-03-05 12:40:00,
2013-03-05 07:50:00,39.1,36.7,29.86,ESE,112,2.0,7.0,91,0.02,,,0.08,VWS V14.01,2013-03-05 12:50:00,
2013-03-05 08:00:00,39.2,36.8,29.86,SE,135,2.0,5.0,91,0.01,,,0.08,VWS V14.01,2013-03-05 13:00:00,
2013-03-05 08:10:00,39.5,37.4,29.86,ESE,112,2.0,7.0,92,0.01,,,0.08,VWS V14.01,2013-03-05 13:10:00,
2013-03-05 08:20:00,39.6,37.5,29.85,ESE,112,3.0,5.0,92,0.00,,,0.08,VWS V14.01,2013-03-05 13:20:00,
2013-03-05 08:30:00,39.9,38.0,29.83,ESE,112,2.0,7.0,93,0.00,,,0.08,VWS V14.01,2013-03-05 13:30:00,
2013-03-05 08:40:00,40.2,38.3,29.83,ESE,112,3.0,7.0,93,0.00,,,0.08,VWS V14.01,2013-03-05 13:40:00,
2013-03-05 08:50:00,40.5,38.6,29.83,ESE,112,3.0,7.0,93,0.00,,,0.08,VWS V14.01,2013-03-05 13:50:00,
2013-03-05 09:00:00,40.8,39.2,29.81,ESE,112,3.0,7.0,94,0.00,,,0.08,VWS V14.01,2013-03-05 14:00:00,
2013-03-05 09:10:00,41.2,39.6,29.81,ESE,112,3.0,6.0,94,0.00,,,0.08,VWS V14.01,2013-03-05 14:10:00,
2013-03-05 09:20:00,41.6,40.0,29.80,ESE,112,4.0,8.0,94,0.01,,,0.09,VWS V14.01,2013-03-05 14:20:00,
2013-03-05 09:30:00,41.6,40.0,29.78,East,90,4.0,9.0,94,0.01,,,0.09,VWS V14.01,2013-03-05 14:30:00,
2013-03-05 09:40:00,41.8,40.2,29.78,East,90,3.0,8.0,94,0.01,,,0.09,VWS V14.01,2013-03-05 14:40:00,
2013-03-05 09:50:00,42.1,40.8,29.77,ESE,112,4.0,8.0,95,0.01,,,0.09,VWS V14.01,2013-03-05 14:50:00,
2013-03-05 10:00:00,42.3,41.0,29.76,ESE,112,3.0,8.0,95,0.01,,,0.09,VWS V14.01,2013-03-05 15:00:00,
2013-03-05 10:10:00,42.5,41.2,29.76,ESE,112,3.0,7.0,95,0.01,,,0.09,VWS V14.01,2013-03-05 15:10:00,
2013-03-05 10:20:00,42.6,41.3,29.75,SE,135,3.0,7.0,95,0.01,,,0.09,VWS V14.01,2013-03-05 15:20:00,
2013-03-05 10:30:00,42.6,41.3,29.75,SE,135,3.0,6.0,95,0.01,,,0.09,VWS V14.01,2013-03-05 15:30:00,
2013-03-05 10:40:00,42.8,41.5,29.75,SE,135,1.0,4.0,95,0.01,,,0.09,VWS V14.01,2013-03-05 15:40:00,
2013-03-05 10:50:00,42.9,41.6,29.74,SE,135,1.0,3.0,95,0.04,,,0.12,VWS V14.01,2013-03-05 15:50:00,
2013-03-05 11:00:00,43.2,41.9,29.73,SE,135,1.0,3.0,95,0.08,,,0.16,VWS V14.01,2013-03-05 16:00:00,
2013-03-05 11:10:00,43.5,42.2,29.73,SE,135,1.0,4.0,95,0.10,,,0.18,VWS V14.01,2013-03-05 16:10:00,
2013-03-05 11:20:00,43.9,42.6,29.72,ESE,112,2.0,5.0,95,0.10,,,0.18,VWS V14.01,2013-03-05 16:20:00,
2013-03-05 11:30:00,44.2,42.9,29.70,ESE,112,2.0,7.0,95,0.10,,,0.19,VWS V14.01,2013-03-05 16:30:00,
2013-03-05 11:40:00,44.3,43.0,29.70,SE,135,2.0,7.0,95,0.12,,,0.21,VWS V14.01,2013-03-05 16:40:00,
2013-03-05 11:50:00,44.8,43.5,29.69,SE,135,3.0,7.0,95,0.13,,,0.22,VWS V14.01,2013-03-05 16:50:00,
2013-03-05 12:00:00,44.9,43.6,29.68,SE,135,2.0,6.0,95,0.15,,,0.24,VWS V14.01,2013-03-05 17:00:00,
2013-03-05 12:10:00,45.1,43.8,29.68,ESE,112,2.0,5.0,95,0.16,,,0.25,VWS V14.01,2013-03-05 17:10:00,
2013-03-05 12:20:00,45.2,43.9,29.67,SSE,158,1.0,4.0,95,0.18,,,0.27,VWS V14.01,2013-03-05 17:20:00,
2013-03-05 12:30:00,45.4,44.0,29.65,SE,135,1.0,4.0,95,0.20,,,0.29,VWS V14.01,2013-03-05 17:30:00,
2013-03-05 12:40:00,45.4,44.0,29.65,ESE,112,2.0,4.0,95,0.21,,,0.30,VWS V14.01,2013-03-05 17:40:00,
2013-03-05 12:50:00,45.5,44.2,29.64,SE,135,2.0,4.0,95,0.23,,,0.32,VWS V14.01,2013-03-05 17:50:00,
2013-03-05 13:00:00,45.7,44.3,29.63,SE,135,1.0,3.0,95,0.20,,,0.32,VWS V14.01,2013-03-05 18:00:00,
2013-03-05 13:10:00,45.7,44.3,29.63,SE,135,2.0,4.0,95,0.17,,,0.33,VWS V14.01,2013-03-05 18:10:00,
2013-03-05 13:20:00,45.8,44.5,29.62,SE,135,1.0,3.0,95,0.16,,,0.34,VWS V14.01,2013-03-05 18:20:00,
2013-03-05 13:30:00,45.8,44.5,29.62,SE,135,1.0,4.0,95,0.17,,,0.35,VWS V14.01,2013-03-05 18:30:00,
2013-03-05 13:40:00,45.8,44.5,29.62,East,90,1.0,4.0,95,0.17,,,0.36,VWS V14.01,2013-03-05 18:40:00,
2013-03-05 13:50:00,45.8,44.5,29.60,East,90,1.0,3.0,95,0.17,,,0.38,VWS V14.01,2013-03-05 18:50:00,
2013-03-05 14:00:00,46.0,44.7,29.60,East,90,0.0,3.0,95,0.16,,,0.38,VWS V14.01,2013-03-05 19:00:00,
2013-03-05 14:10:00,45.8,44.5,29.60,East,90,0.0,2.0,95,0.15,,,0.39,VWS V14.01,2013-03-05 19:10:00,
2013-03-05 14:20:00,45.8,44.5,29.59,East,90,0.0,3.0,95,0.14,,,0.39,VWS V14.01,2013-03-05 19:20:00,
2013-03-05 14:30:00,46.0,44.9,29.59,East,90,0.0,1.0,96,0.12,,,0.39,VWS V14.01,2013-03-05 19:30:00,
2013-03-05 14:40:00,46.0,44.9,29.59,East,90,0.0,0.0,96,0.12,,,0.41,VWS V14.01,2013-03-05 19:40:00,
2013-03-05 14:50:00,45.8,44.7,29.59,East,90,0.0,2.0,96,0.12,,,0.42,VWS V14.01,2013-03-05 19:50:00,
2013-03-05 15:00:00,45.8,44.7,29.59,WSW,248,1.0,2.0,96,0.13,,,0.45,VWS V14.01,2013-03-05 20:00:00,
2013-03-05 15:10:00,45.8,44.7,29.59,WSW,248,1.0,2.0,96,0.17,,,0.49,VWS V14.01,2013-03-05 20:10:00,
2013-03-05 15:20:00,45.8,44.7,29.60,WSW,248,1.0,3.0,96,0.19,,,0.52,VWS V14.01,2013-03-05 20:20:00,
2013-03-05 15:30:00,45.8,44.7,29.60,WSW,248,3.0,7.0,96,0.20,,,0.54,VWS V14.01,2013-03-05 20:30:00,
2013-03-05 15:40:00,45.7,44.6,29.60,WSW,248,5.0,14.0,96,0.22,,,0.57,VWS V14.01,2013-03-05 20:40:00,
2013-03-05 15:50:00,45.1,43.8,29.60,WSW,248,7.0,15.0,95,0.22,,,0.58,VWS V14.01,2013-03-05 20:50:00,
2013-03-05 16:00:00,43.6,42.0,29.63,WSW,248,11.0,25.0,94,0.20,,,0.58,VWS V14.01,2013-03-05 21:00:00,
2013-03-05 16:10:00,40.8,38.7,29.63,West,270,13.0,25.0,92,0.22,,,0.60,VWS V14.01,2013-03-05 21:10:00,
2013-03-05 16:20:00,39.2,36.5,29.65,West,270,13.0,24.0,90,0.23,,,0.62,VWS V14.01,2013-03-05 21:20:00,
2013-03-05 16:30:00,38.3,35.6,29.67,West,270,11.0,20.0,90,0.24,,,0.63,VWS V14.01,2013-03-05 21:30:00,
2013-03-05 16:40:00,36.8,33.9,29.67,WSW,248,11.0,24.0,89,0.25,,,0.64,VWS V14.01,2013-03-05 21:40:00,
2013-03-05 16:50:00,35.0,32.1,29.70,WSW,248,13.0,25.0,89,0.24,,,0.65,VWS V14.01,2013-03-05 21:50:00,
2013-03-05 17:00:00,33.8,30.9,29.71,West,270,11.0,21.0,89,0.23,,,0.65,VWS V14.01,2013-03-05 22:00:00,
2013-03-05 17:10:00,32.8,30.2,29.71,West,270,10.0,21.0,90,0.20,,,0.65,VWS V14.01,2013-03-05 22:10:00,
2013-03-05 17:20:00,32.4,30.1,29.72,West,270,12.0,22.0,91,0.16,,,0.65,VWS V14.01,2013-03-05 22:20:00,
2013-03-05 17:30:00,32.2,30.1,29.73,West,270,10.0,20.0,92,0.13,,,0.65,VWS V14.01,2013-03-05 22:30:00,
2013-03-05 17:40:00,31.9,29.8,29.73,West,270,10.0,22.0,92,0.11,,,0.65,VWS V14.01,2013-03-05 22:40:00,
2013-03-05 17:50:00,31.9,29.8,29.74,WSW,248,9.0,20.0,92,0.08,,,0.65,VWS V14.01,2013-03-05 22:50:00,
2013-03-05 18:00:00,31.6,29.5,29.74,WSW,248,11.0,22.0,92,0.07,,,0.65,VWS V14.01,2013-03-05 23:00:00,
2013-03-05 18:10:00,31.5,29.5,29.74,West,270,9.0,19.0,92,0.07,,,0.65,VWS V14.01,2013-03-05 23:10:00,
2013-03-05 18:20:00,31.5,29.5,29.76,WSW,248,11.0,22.0,92,0.05,,,0.65,VWS V14.01,2013-03-05 23:20:00,
2013-03-05 18:30:00,31.2,28.9,29.76,WSW,248,11.0,21.0,91,0.03,,,0.65,VWS V14.01,2013-03-05 23:30:00,
2013-03-05 18:40:00,31.2,28.3,29.76,WSW,248,12.0,24.0,89,0.02,,,0.65,VWS V14.01,2013-03-05 23:40:00,
2013-03-05 18:50:00,31.2,28.1,29.76,West,270,13.0,24.0,88,0.01,,,0.65,VWS V14.01,2013-03-05 23:50:00,
2013-03-05 19:00:00,31.3,27.9,29.77,WSW,248,10.0,23.0,87,0.00,,,0.65,VWS V14.01,2013-03-06 00:00:00,
2013-03-05 19:10:00,31.2,27.5,29.77,West,270,10.0,25.0,86,0.00,,,0.65,VWS V14.01,2013-03-06 00:10:00,
2013-03-05 19:20:00,31.0,27.0,29.78,West,270,12.0,24.0,85,0.00,,,0.65,VWS V14.01,2013-03-06 00:20:00,
2013-03-05 19:30:00,30.9,27.2,29.78,West,270,10.0,20.0,86,0.00,,,0.65,VWS V14.01,2013-03-06 00:30:00,
2013-03-05 19:40:00,30.9,27.2,29.78,West,270,10.0,22.0,86,0.00,,,0.65,VWS V14.01,2013-03-06 00:40:00,
2013-03-05 19:50:00,31.0,27.6,29.78,WSW,248,8.0,18.0,87,0.00,,,0.65,VWS V14.01,2013-03-06 00:50:00,
2013-03-05 20:00:00,30.7,27.0,29.78,WSW,248,11.0,21.0,86,0.00,,,0.65,VWS V14.01,2013-03-06 01:00:00,
2013-03-05 20:10:00,30.4,26.1,29.78,West,270,12.0,24.0,84,0.00,,,0.65,VWS V14.01,2013-03-06 01:10:00,
2013-03-05 20:20:00,30.4,26.4,29.80,WSW,248,9.0,18.0,85,0.00,,,0.65,VWS V14.01,2013-03-06 01:20:00,
2013-03-05 20:30:00,30.3,26.3,29.80,West,270,9.0,17.0,85,0.00,,,0.65,VWS V14.01,2013-03-06 01:30:00,
2013-03-05 20:40:00,30.1,26.1,29.80,WSW,248,10.0,21.0,85,0.00,,,0.65,VWS V14.01,2013-03-06 01:40:00,
2013-03-05 20:50:00,29.8,25.3,29.80,WSW,248,11.0,31.0,83,0.00,,,0.65,VWS V14.01,2013-03-06 01:50:00,
2013-03-05 21:00:00,29.5,24.7,29.80,West,270,12.0,31.0,82,0.00,,,0.65,VWS V14.01,2013-03-06 02:00:00,
2013-03-05 21:10:00,29.7,25.5,29.80,WSW,248,10.0,22.0,84,0.00,,,0.65,VWS V14.01,2013-03-06 02:10:00,
2013-03-05 21:20:00,29.5,25.6,29.80,West,270,9.0,22.0,85,0.00,,,0.65,VWS V14.01,2013-03-06 02:20:00,
2013-03-05 21:30:00,29.4,25.5,29.80,WSW,248,10.0,19.0,85,0.00,,,0.65,VWS V14.01,2013-03-06 02:30:00,
2013-03-05 21:40:00,29.3,25.4,29.80,WSW,248,9.0,23.0,85,0.00,,,0.65,VWS V14.01,2013-03-06 02:40:00,
2013-03-05 21:50:00,29.1,25.2,29.80,WSW,248,10.0,19.0,85,0.00,,,0.65,VWS V14.01,2013-03-06 02:50:00,
2013-03-05 22:00:00,29.1,25.2,29.80,West,270,8.0,16.0,85,0.00,,,0.00,VWS V14.01,2013-03-06 03:00:00,
2013-03-05 22:10:00,29.0,25.4,29.80,WSW,248,8.0,15.0,86,0.00,,,0.00,VWS V14.01,2013-03-06 03:10:00,
2013-03-05 22:20:00,28.7,25.0,29.80,WSW,248,9.0,21.0,86,0.00,,,0.00,VWS V14.01,2013-03-06 03:20:00,
2013-03-05 22:30:00,28.7,25.3,29.80,WSW,248,7.0,12.0,87,0.00,,,0.00,VWS V14.01,2013-03-06 03:30:00,
2013-03-05 22:40:00,28.5,25.4,29.80,WSW,248,6.0,12.0,88,0.00,,,0.00,VWS V14.01,2013-03-06 03:40:00,
2013-03-05 22:50:00,28.2,25.1,29.80,SW,225,7.0,13.0,88,0.00,,,0.00,VWS V14.01,2013-03-06 03:50:00,
2013-03-05 23:00:00,28.1,25.0,29.80,WSW,248,8.0,13.0,88,0.00,,,0.00,VWS V14.01,2013-03-06 04:00:00,
2013-03-05 23:10:00,27.9,25.1,29.80,WSW,248,7.0,12.0,89,0.00,,,0.00,VWS V14.01,2013-03-06 04:10:00,
2013-03-05 23:20:00,27.9,25.1,29.80,WSW,248,6.0,13.0,89,0.00,,,0.00,VWS V14.01,2013-03-06 04:20:00,
2013-03-05 23:30:00,27.9,25.1,29.80,SW,225,7.0,13.0,89,0.00,,,0.00,VWS V14.01,2013-03-06 04:30:00,
2013-03-05 23:40:00,27.9,25.1,29.80,SW,225,7.0,14.0,89,0.00,,,0.00,VWS V14.01,2013-03-06 04:40:00,
2013-03-05 23:50:00,27.9,25.1,29.80,WSW,248,6.0,14.0,89,0.00,,,0.00,VWS V14.01,2013-03-06 04:50:00,